Location: Bambrugge
(50.9212°N, 3.9299°E)
Time: 04:59:12
(UTC+00:00)

SL-16 R/B - Pass Details

Date: 11 August 2024
Orbit: 842 x 845 km, 71.0° (Epoch: 16 September)

Event Time Altitude Azimuth Distance (km) Brightness Sun altitude
Exits shadow 22:46:38 28° 103° (ESE) 1,544 3.3 -22.8°
Drops below altitude 10° 22:51:17 10° 48° (NE) 2,474 4.9 -23.0°
Sets 22:54:03 0° 37° (NE) 3,414 5.9 -23.1°
